This is the latest recevied weather packets stored in our database for station/object K5FEP. If no packets are shown the sender has not sent any weather packets the latest 10 day(s).
| Time | Temp. | Humidity | Pressure | Rain* | Wind** | Luminosity | Snow |
|---|---|---|---|---|---|---|---|
| 1788377792 | 37.22° C | 37% | 1016.4 hPa | 0 mm | - | 214 W/m² | - |
| 1788377492 | 37.22° C | 37% | 1016.4 hPa | 0 mm | - | 326 W/m² | - |
| 1788377191 | 38.33° C | 34% | 1016.4 hPa | 0 mm | - | 469 W/m² | - |
| 1788376890 | 38.33° C | 34% | 1016.5 hPa | 0 mm | - | 758 W/m² | - |
| 1788376586 | 37.78° C | 35% | 1016.7 hPa | 0 mm | - | 785 W/m² | - |
| 1788376285 | 37.78° C | 34% | 1016.6 hPa | 0 mm | - | 811 W/m² | - |
| 1788375981 | 37.78° C | 34% | 1016.5 hPa | 0 mm | - | 543 W/m² | - |
| 1788375676 | 37.78° C | 34% | 1016.6 hPa | 0 mm | - | 273 W/m² | - |
| 1788375372 | 38.33° C | 32% | 1016.6 hPa | 0 mm | - | 834 W/m² | - |
| 1788375068 | 37.78° C | 32% | 1016.7 hPa | 0 mm | - | 837 W/m² | - |
| 1788374763 | 37.78° C | 34% | 1016.6 hPa | 0 mm | - | 803 W/m² | - |
| 1788374457 | 37.78° C | 35% | 1016.8 hPa | 0 mm | - | 838 W/m² | - |
| 1788374154 | 37.22° C | 35% | 1016.8 hPa | 0 mm | - | 835 W/m² | - |
| 1788373850 | 36.67° C | 36% | 1016.7 hPa | 0 mm | - | 836 W/m² | - |
| 1788373546 | 36.67° C | 36% | 1016.9 hPa | 0 mm | - | 193 W/m² | - |
| 1788373243 | 36.67° C | 35% | 1016.9 hPa | 0 mm | - | 616 W/m² | - |
| 1788372938 | 37.22° C | 35% | 1016.7 hPa | 0 mm | - | 853 W/m² | - |
| 1788372637 | 37.22° C | 36% | 1017 hPa | 0 mm | - | 866 W/m² | - |
| 1788372332 | 36.67° C | 36% | 1017 hPa | 0 mm | - | 886 W/m² | - |
| 1788372029 | 36.67° C | 35% | 1017 hPa | 0 mm | - | 893 W/m² | - |
| 1788371728 | 37.22° C | 35% | 1017.1 hPa | 0 mm | - | 893 W/m² | - |
| 1788371424 | 37.22° C | 36% | 1017.1 hPa | 0 mm | - | 894 W/m² | - |
| 1788371121 | 36.67° C | 35% | 1017.1 hPa | 0 mm | - | 891 W/m² | - |
| 1788370816 | 36.67° C | 35% | 1017.2 hPa | 0 mm | - | 904 W/m² | - |
| 1788370515 | 37.22° C | 35% | 1017.1 hPa | 0 mm | - | 906 W/m² | - |
* Rain latest hour (hover to see other rain measurements)
** Current wind speed in m/s (hover to see current wind gust speed)